TimeCST,TemperatureF,Dew PointF,Humidity,Sea Level PressureIn,VisibilityMPH,Wind Direction,Wind SpeedMPH,Gust SpeedMPH,PrecipitationIn,Events,Conditions,WindDirDegrees,DateUTC
12:15 AM,2.3,-9.0,59,30.32,10.0,South,5.8,-,N/A,,Clear,170,2014-01-28 06:15:00
12:35 AM,2.1,-9.6,58,30.31,10.0,South,6.9,-,N/A,,Clear,170,2014-01-28 06:35:00
12:55 AM,2.3,-10.3,56,30.31,10.0,South,4.6,-,N/A,,Clear,170,2014-01-28 06:55:00
1:15 AM,2.1,-9.6,58,30.30,10.0,SSE,5.8,-,N/A,,Scattered Clouds,160,2014-01-28 07:15:00
1:35 AM,3.0,-8.5,59,30.29,10.0,SSE,4.6,-,N/A,,Mostly Cloudy,150,2014-01-28 07:35:00
1:55 AM,4.8,-6.9,59,30.28,10.0,SE,4.6,-,N/A,,Overcast,130,2014-01-28 07:55:00
2:15 AM,7.0,-5.8,56,30.28,10.0,SE,5.8,-,N/A,Snow,Light Snow,140,2014-01-28 08:15:00
2:35 AM,7.7,-6.3,53,30.28,10.0,ESE,4.6,-,N/A,,Overcast,120,2014-01-28 08:35:00
2:55 AM,8.2,-5.1,55,30.28,10.0,East,4.6,-,N/A,,Overcast,100,2014-01-28 08:55:00
3:15 AM,7.2,-5.1,57,30.28,10.0,East,6.9,-,N/A,,Mostly Cloudy,80,2014-01-28 09:15:00
3:35 AM,3.9,-6.9,61,30.29,10.0,NE,5.8,-,N/A,,Scattered Clouds,50,2014-01-28 09:35:00
3:55 AM,6.6,-3.6,63,30.29,10.0,NE,6.9,-,N/A,,Mostly Cloudy,50,2014-01-28 09:55:00
4:15 AM,6.8,-1.3,69,30.30,10.0,NE,8.1,-,N/A,,Overcast,50,2014-01-28 10:15:00
4:35 AM,6.4,-0.6,73,30.31,10.0,NNE,10.4,-,N/A,,Overcast,30,2014-01-28 10:35:00
4:55 AM,5.9,-0.4,75,30.31,10.0,NNE,10.4,-,N/A,,Mostly Cloudy,30,2014-01-28 10:55:00
5:15 AM,4.6,-0.9,78,30.31,10.0,NE,8.1,-,N/A,,Scattered Clouds,40,2014-01-28 11:15:00
5:35 AM,3.2,-1.5,81,30.32,10.0,NNE,8.1,-,N/A,,Clear,30,2014-01-28 11:35:00
5:55 AM,2.1,-2.7,80,30.31,10.0,NE,6.9,-,N/A,,Clear,50,2014-01-28 11:55:00
6:15 AM,1.2,-3.3,81,30.32,10.0,ENE,4.6,-,N/A,,Clear,70,2014-01-28 12:15:00
6:35 AM,1.8,-2.2,83,30.32,10.0,ENE,3.5,-,N/A,,Clear,60,2014-01-28 12:35:00
6:55 AM,-0.0,-4.4,82,30.33,10.0,North,3.5,-,N/A,,Clear,10,2014-01-28 12:55:00
7:15 AM,-0.4,-4.7,82,30.34,10.0,Calm,Calm,-,N/A,,Clear,0,2014-01-28 13:15:00
7:35 AM,-2.0,-6.2,83,30.34,10.0,Calm,Calm,-,N/A,,Clear,0,2014-01-28 13:35:00
7:55 AM,0.5,-3.6,83,30.34,10.0,WSW,4.6,-,N/A,,Clear,250,2014-01-28 13:55:00
8:15 AM,0.7,-3.5,83,30.36,10.0,West,3.5,-,N/A,,Clear,280,2014-01-28 14:15:00
8:35 AM,1.9,-2.6,81,30.36,10.0,WNW,4.6,-,N/A,,Clear,290,2014-01-28 14:35:00
8:55 AM,3.2,-1.5,81,30.36,10.0,West,4.6,-,N/A,,Clear,280,2014-01-28 14:55:00
9:15 AM,5.0,-0.0,80,30.35,10.0,West,4.6,-,N/A,,Clear,280,2014-01-28 15:15:00
9:35 AM,7.9,2.3,78,30.35,10.0,Calm,Calm,-,N/A,,Clear,0,2014-01-28 15:35:00
9:55 AM,10.2,3.7,75,30.36,10.0,West,5.8,-,N/A,,Clear,260,2014-01-28 15:55:00
10:15 AM,12.2,3.7,69,30.36,10.0,WSW,4.6,-,N/A,,Clear,240,2014-01-28 16:15:00
10:35 AM,14.2,3.6,63,30.36,10.0,WSW,5.8,-,N/A,,Clear,250,2014-01-28 16:35:00
10:55 AM,15.8,2.1,55,30.36,10.0,WNW,8.1,-,N/A,,Clear,300,2014-01-28 16:55:00
11:15 AM,16.7,-0.2,47,30.36,10.0,NW,9.2,-,N/A,,Clear,320,2014-01-28 17:15:00
11:35 AM,17.1,-0.6,46,30.35,10.0,WNW,8.1,-,N/A,,Clear,300,2014-01-28 17:35:00
11:55 AM,17.8,-1.3,43,30.34,10.0,WNW,5.8,-,N/A,,Clear,290,2014-01-28 17:55:00
12:15 PM,18.9,-1.1,42,30.33,10.0,West,6.9,-,N/A,,Clear,260,2014-01-28 18:15:00
12:35 PM,19.6,-1.8,39,30.31,10.0,WNW,8.1,19.6,N/A,,Clear,300,2014-01-28 18:35:00
12:55 PM,20.8,-1.8,37,30.30,10.0,West,12.7,16.1,N/A,,Clear,260,2014-01-28 18:55:00
1:15 PM,21.2,-3.3,34,30.27,10.0,WNW,10.4,20.7,N/A,,Clear,300,2014-01-28 19:15:00
1:35 PM,21.7,-3.1,34,30.26,10.0,West,13.8,-,N/A,,Clear,260,2014-01-28 19:35:00
1:55 PM,22.5,-3.5,32,30.25,10.0,West,17.3,21.9,N/A,,Clear,270,2014-01-28 19:55:00
2:15 PM,23.4,-3.3,31,30.23,10.0,West,13.8,17.3,N/A,,Clear,280,2014-01-28 20:15:00
2:35 PM,23.9,-3.3,31,30.22,10.0,WNW,12.7,17.3,N/A,,Clear,290,2014-01-28 20:35:00
2:55 PM,25.2,-4.2,28,30.21,10.0,WNW,12.7,20.7,N/A,,Clear,290,2014-01-28 20:55:00
3:15 PM,25.3,-6.5,25,30.20,10.0,WNW,13.8,23.0,N/A,,Clear,300,2014-01-28 21:15:00
3:35 PM,25.3,-5.6,26,30.20,10.0,West,13.8,21.9,N/A,,Clear,280,2014-01-28 21:35:00
3:55 PM,25.2,-5.8,26,30.19,10.0,NW,13.8,19.6,N/A,,Clear,310,2014-01-28 21:55:00
4:15 PM,25.5,-4.9,27,30.19,10.0,WNW,11.5,-,N/A,,Clear,290,2014-01-28 22:15:00
4:35 PM,25.5,-4.9,27,30.19,10.0,NW,10.4,-,N/A,,Clear,310,2014-01-28 22:35:00
4:55 PM,24.8,-5.4,27,30.19,10.0,NW,5.8,-,N/A,,Clear,310,2014-01-28 22:55:00
5:15 PM,24.4,-5.8,27,30.19,10.0,NW,6.9,-,N/A,,Clear,320,2014-01-28 23:15:00
5:35 PM,22.6,-6.0,28,30.18,10.0,NNW,4.6,-,N/A,,Clear,330,2014-01-28 23:35:00
5:55 PM,21.4,-6.5,29,30.17,10.0,NNW,3.5,-,N/A,,Clear,340,2014-01-28 23:55:00
6:15 PM,20.3,-6.7,30,30.17,10.0,Calm,Calm,-,N/A,,Clear,0,2014-01-29 00:15:00
6:35 PM,18.7,-6.9,32,30.17,10.0,Calm,Calm,-,N/A,,Clear,0,2014-01-29 00:35:00
6:55 PM,18.9,-5.8,34,30.17,10.0,SSW,4.6,-,N/A,,Clear,210,2014-01-29 00:55:00
7:15 PM,14.7,-6.7,38,30.17,10.0,SSW,3.5,-,N/A,,Clear,200,2014-01-29 01:15:00
7:35 PM,14.2,-6.2,40,30.16,10.0,South,5.8,-,N/A,,Clear,190,2014-01-29 01:35:00
7:55 PM,13.6,-5.8,42,30.16,10.0,South,3.5,-,N/A,,Clear,180,2014-01-29 01:55:00
8:15 PM,12.7,-5.8,43,30.16,10.0,South,3.5,-,N/A,,Clear,180,2014-01-29 02:15:00
8:35 PM,12.6,-5.6,44,30.16,10.0,SSW,4.6,-,N/A,,Clear,200,2014-01-29 02:35:00
8:55 PM,12.4,-6.2,43,30.16,10.0,SSW,3.5,-,N/A,,Clear,200,2014-01-29 02:55:00
9:15 PM,10.4,-7.1,45,30.16,10.0,SSW,5.8,-,N/A,,Clear,200,2014-01-29 03:15:00
9:35 PM,12.7,-5.8,43,30.16,10.0,SSW,4.6,-,N/A,,Clear,210,2014-01-29 03:35:00
9:55 PM,10.6,-6.5,46,30.16,10.0,Calm,Calm,-,N/A,,Clear,0,2014-01-29 03:55:00
10:15 PM,10.9,-6.0,47,30.15,10.0,SSW,5.8,-,N/A,,Clear,200,2014-01-29 04:15:00
10:35 PM,12.2,-5.8,45,30.15,10.0,SSW,5.8,-,N/A,,Clear,200,2014-01-29 04:35:00
10:55 PM,11.8,-5.4,46,30.15,10.0,SSW,6.9,-,N/A,,Clear,210,2014-01-29 04:55:00
11:15 PM,12.2,-4.9,46,30.14,10.0,SSW,6.9,-,N/A,,Clear,210,2014-01-29 05:15:00
11:35 PM,12.7,-5.1,45,30.13,10.0,SSW,4.6,-,N/A,,Clear,210,2014-01-29 05:35:00
11:55 PM,4.6,-7.2,58,30.13,10.0,SSW,4.6,-,N/A,,Clear,200,2014-01-29 05:55:00